When you browse on this site, cookies collect data to enhance your experience and personalize the content and advertising you see.
Visit our Privacy Policy to learn more. By continuing to use the site, you agree to this use of cookies and data.
  • In Lithuania
  • List of Countries
  • For 7 days
  • Water Temperature
  • Satellite Maps
  • Weather Map
  • Weather Widgets
  • user-avatar
    Login

    Hourly Weather Mayrhofen

    Today, 24 March, Sunday

    Time Temperature Precipitation Wind Pressure Humidity
    00:00 +2°C° 0 mm 1 mps 620 mmHg 82%
    01:00 +2°C° 0 mm 1 mps 620 mmHg 77%
    02:00 +1°C° 0 mm 2 mps 620 mmHg 76%
    03:00 -1°C° 0 mm 2 mps 620 mmHg 74%
    04:00 -1°C° 0 mm 2 mps 619 mmHg 73%
    05:00 -1°C° 0 mm 2 mps 619 mmHg 71%
    06:00 -1°C° 0 mm 2 mps 619 mmHg 68%
    07:00 -1°C° 0 mm 2 mps 619 mmHg 66%
    08:00 +3°C° 0 mm 2 mps 620 mmHg 66%
    09:00 +6°C° 0 mm 1 mps 620 mmHg 66%
    10:00 +8°C° 0 mm 1 mps 621 mmHg 66%
    11:00 +9°C° 0 mm 1 mps 621 mmHg 63%
    12:00 +10°C° 0 mm 1 mps 621 mmHg 60%
    13:00 +10°C° 0 mm 0 mps 621 mmHg 58%
    14:00 +10°C° 0 mm 1 mps 620 mmHg 60%
    15:00 +10°C° 0 mm 1 mps 620 mmHg 63%
    16:00 +10°C° 0 mm 1 mps 620 mmHg 66%
    17:00 +8°C° 0.1 mm 1 mps 619 mmHg 73%
    18:00 +6°C° 0.1 mm 1 mps 618 mmHg 81%
    19:00 +4°C° 0.1 mm 1 mps 617 mmHg 88%
    20:00 +4°C° 0.1 mm 1 mps 618 mmHg 90%
    21:00 +3°C° 0.1 mm 1 mps 618 mmHg 92%
    22:00 +2°C° 0.1 mm 2 mps 618 mmHg 94%
    23:00 +3°C° 0.1 mm 1 mps 618 mmHg 95%

    Tomorrow, 25 March, Monday

    Time Temperature Precipitation Wind Pressure Humidity
    00:00 +3°C° 0.1 mm 1 mps 617 mmHg 95%
    01:00 +2°C° 0.1 mm 1 mps 617 mmHg 96%
    02:00 +2°C° 0 mm 1 mps 617 mmHg 96%
    03:00 +2°C° 0 mm 1 mps 616 mmHg 96%
    04:00 +1°C° 0 mm 1 mps 616 mmHg 96%
    05:00 +1°C° 0 mm 1 mps 616 mmHg 96%
    06:00 -1°C° 0 mm 2 mps 616 mmHg 96%
    07:00 -1°C° 0 mm 2 mps 616 mmHg 95%
    08:00 +1°C° 0.1 mm 2 mps 616 mmHg 91%
    09:00 +2°C° 0.1 mm 2 mps 616 mmHg 87%
    10:00 +2°C° 0.1 mm 2 mps 616 mmHg 83%
    11:00 +1°C° 0.2 mm 3 mps 616 mmHg 82%
    12:00 +1°C° 0.2 mm 3 mps 615 mmHg 82%
    13:00 +1°C° 0.2 mm 3 mps 615 mmHg 81%
    14:00 +1°C° 0.4 mm 3 mps 614 mmHg 83%
    15:00 -1°C° 0.4 mm 4 mps 614 mmHg 85%
    16:00 -2°C° 0.4 mm 4 mps 613 mmHg 87%
    17:00 -3°C° 0.7 mm 4 mps 613 mmHg 89%
    18:00 -5°C° 0.7 mm 4 mps 613 mmHg 91%
    19:00 -7°C° 0.7 mm 4 mps 614 mmHg 93%
    20:00 -8°C° 0.4 mm 4 mps 614 mmHg 92%
    21:00 -8°C° 0.4 mm 4 mps 614 mmHg 92%
    22:00 -9°C° 0.4 mm 4 mps 615 mmHg 91%
    23:00 -10°C° 0.1 mm 4 mps 615 mmHg 91%

    Day after tomorrow, 26 March, Tuesday

    Time Temperature Precipitation Wind Pressure Humidity
    00:00 -10°C° 0.1 mm 4 mps 615 mmHg 91%
    01:00 -9°C° 0.1 mm 3 mps 616 mmHg 91%
    02:00 -9°C° 0.2 mm 3 mps 616 mmHg 90%
    03:00 -10°C° 0.2 mm 3 mps 616 mmHg 89%
    04:00 -10°C° 0.2 mm 3 mps 617 mmHg 89%
    05:00 -10°C° 0.1 mm 3 mps 617 mmHg 88%
    06:00 -9°C° 0.1 mm 2 mps 617 mmHg 88%
    07:00 -9°C° 0.1 mm 2 mps 618 mmHg 87%
    08:00 -9°C° 0 mm 3 mps 618 mmHg 81%
    09:00 -7°C° 0 mm 3 mps 619 mmHg 75%
    10:00 -6°C° 0 mm 3 mps 619 mmHg 69%
    11:00 -6°C° 0 mm 3 mps 619 mmHg 69%
    12:00 -5°C° 0 mm 3 mps 620 mmHg 68%
    13:00 -4°C° 0 mm 3 mps 620 mmHg 67%
    14:00 -4°C° 0 mm 3 mps 619 mmHg 68%
    15:00 -4°C° 0 mm 3 mps 619 mmHg 69%
    16:00 -4°C° 0 mm 3 mps 619 mmHg 70%
    17:00 -6°C° 0 mm 3 mps 619 mmHg 77%
    18:00 -6°C° 0 mm 2 mps 619 mmHg 84%
    19:00 -7°C° 0 mm 2 mps 618 mmHg 90%
    20:00 -8°C° 0 mm 2 mps 619 mmHg 90%
    21:00 -7°C° 0 mm 1 mps 619 mmHg 91%
    22:00 -8°C° 0 mm 1 mps 619 mmHg 91%
    23:00 -8°C° 0 mm 1 mps 619 mmHg 89%

    27 March, Wednesday

    Time Temperature Precipitation Wind Pressure Humidity
    00:00 -8°C° 0 mm 1 mps 619 mmHg 88%
    01:00 -8°C° 0 mm 1 mps 619 mmHg 86%
    02:00 -8°C° 0 mm 1 mps 619 mmHg 85%
    03:00 -8°C° 0 mm 1 mps 619 mmHg 83%
    04:00 -7°C° 0 mm 1 mps 619 mmHg 81%
    05:00 -7°C° 0 mm 1 mps 619 mmHg 80%
    06:00 -6°C° 0 mm 1 mps 619 mmHg 80%
    07:00 -6°C° 0 mm 1 mps 620 mmHg 79%
    08:00 -6°C° 0 mm 2 mps 620 mmHg 76%
    09:00 -4°C° 0 mm 2 mps 621 mmHg 72%
    10:00 -3°C° 0 mm 2 mps 621 mmHg 69%
    11:00 -3°C° 0 mm 2 mps 621 mmHg 71%
    12:00 -2°C° 0 mm 3 mps 621 mmHg 72%
    13:00 -2°C° 0 mm 3 mps 621 mmHg 74%
    14:00 -2°C° 0 mm 3 mps 621 mmHg 75%
    15:00 -2°C° 0 mm 3 mps 621 mmHg 76%
    16:00 -2°C° 0 mm 3 mps 621 mmHg 77%
    17:00 -3°C° 0 mm 2 mps 621 mmHg 82%
    18:00 -4°C° 0 mm 2 mps 621 mmHg 88%
    19:00 -5°C° 0 mm 2 mps 621 mmHg 93%
    20:00 -6°C° 0 mm 2 mps 621 mmHg 93%
    21:00 -4°C° 0 mm 1 mps 621 mmHg 93%
    22:00 -4°C° 0 mm 1 mps 621 mmHg 93%
    23:00 -6°C° 0 mm 1 mps 621 mmHg 92%

    28 March, Thursday

    Time Temperature Precipitation Wind Pressure Humidity
    00:00 -6°C° 0 mm 1 mps 621 mmHg 91%
    01:00 -7°C° 0 mm 1 mps 621 mmHg 91%
    02:00 -7°C° 0 mm 1 mps 621 mmHg 90%
    03:00 -7°C° 0 mm 1 mps 621 mmHg 89%
    04:00 -7°C° 0 mm 1 mps 621 mmHg 88%
    05:00 -7°C° 0 mm 1 mps 621 mmHg 86%
    06:00 -6°C° 0 mm 1 mps 621 mmHg 84%
    07:00 -6°C° 0 mm 1 mps 621 mmHg 83%
    08:00 -5°C° 0 mm 2 mps 622 mmHg 78%
    09:00 -3°C° 0 mm 2 mps 622 mmHg 74%
    10:00 -1°C° 0 mm 2 mps 623 mmHg 69%
    11:00 -1°C° 0 mm 2 mps 623 mmHg 70%
    12:00 0°C° 0 mm 3 mps 623 mmHg 70%
    13:00 0°C° 0 mm 3 mps 623 mmHg 71%
    14:00 +1°C° 0 mm 2 mps 622 mmHg 71%
    15:00 +1°C° 0 mm 2 mps 622 mmHg 72%
    16:00 +1°C° 0 mm 2 mps 622 mmHg 73%
    17:00 -1°C° 0 mm 2 mps 621 mmHg 79%
    18:00 -3°C° 0 mm 2 mps 621 mmHg 86%
    19:00 -2°C° 0 mm 1 mps 621 mmHg 93%
    20:00 -2°C° 0 mm 1 mps 621 mmHg 93%
    21:00 -3°C° 0 mm 1 mps 621 mmHg 93%
    22:00 -3°C° 0 mm 1 mps 622 mmHg 94%
    23:00 -4°C° 0 mm 1 mps 621 mmHg 93%

    29 March, Friday

    Time Temperature Precipitation Wind Pressure Humidity
    00:00 -4°C° 0 mm 1 mps 621 mmHg 91%
    01:00 -4°C° 0 mm 1 mps 621 mmHg 90%
    02:00 -4°C° 0 mm 1 mps 621 mmHg 88%
    03:00 -4°C° 0 mm 1 mps 621 mmHg 86%
    04:00 -4°C° 0 mm 1 mps 621 mmHg 84%
    05:00 -4°C° 0 mm 1 mps 621 mmHg 81%
    06:00 -3°C° 0 mm 1 mps 621 mmHg 79%
    07:00 -3°C° 0 mm 1 mps 622 mmHg 76%
    08:00 -1°C° 0 mm 1 mps 622 mmHg 69%
    09:00 +2°C° 0 mm 1 mps 623 mmHg 62%
    10:00 +3°C° 0 mm 0 mps 623 mmHg 55%
    11:00 +5°C° 0 mm 1 mps 623 mmHg 54%
    12:00 +5°C° 0 mm 1 mps 623 mmHg 54%
    13:00 +6°C° 0 mm 1 mps 623 mmHg 54%
    14:00 +6°C° 0 mm 1 mps 623 mmHg 57%
    15:00 +6°C° 0 mm 1 mps 622 mmHg 61%
    16:00 +5°C° 0 mm 1 mps 622 mmHg 64%
    17:00 +3°C° 0 mm 1 mps 621 mmHg 72%
    18:00 +1°C° 0 mm 1 mps 621 mmHg 80%
    19:00 -2°C° 0 mm 0 mps 620 mmHg 89%
    20:00 -1°C° 0 mm 1 mps 620 mmHg 87%
    21:00 -1°C° 0 mm 1 mps 621 mmHg 85%
    22:00 -3°C° 0 mm 2 mps 621 mmHg 83%
    23:00 -4°C° 0 mm 2 mps 621 mmHg 81%
    Show more